When you browse on this site, cookies collect data to enhance your experience and personalize the content and advertising you see.
Visit our Privacy Policy to learn more. By continuing to use the site, you agree to this use of cookies and data.
  • In Lithuania
  • List of Countries
  • For 7 days
  • Water Temperature
  • Weather Map
  • Weather Widgets
  • user-avatar
    Login

    Hourly Weather Wietrzychowko

    Today, 12 November, Tuesday

    Time Temperature Precipitation Wind Pressure Humidity
    00:00 0°C° 0 mm 4 mps 743 mmHg 85%
    01:00 -1°C° 0 mm 4 mps 743 mmHg 83%
    02:00 0°C° 0 mm 5 mps 742 mmHg 83%
    03:00 +1°C° 0 mm 5 mps 742 mmHg 83%
    04:00 +1°C° 0 mm 5 mps 741 mmHg 83%
    05:00 +1°C° 0 mm 5 mps 741 mmHg 83%
    06:00 +2°C° 0 mm 6 mps 741 mmHg 83%
    07:00 +2°C° 0 mm 6 mps 740 mmHg 83%
    08:00 +3°C° 0 mm 6 mps 740 mmHg 80%
    09:00 +4°C° 0 mm 6 mps 740 mmHg 77%
    10:00 +4°C° 0 mm 6 mps 740 mmHg 74%
    11:00 +6°C° 0 mm 5 mps 740 mmHg 73%
    12:00 +6°C° 0 mm 5 mps 740 mmHg 72%
    13:00 +7°C° 0 mm 4 mps 740 mmHg 71%
    14:00 +6°C° 0 mm 4 mps 740 mmHg 74%
    15:00 +6°C° 0 mm 4 mps 740 mmHg 77%
    16:00 +5°C° 0 mm 3 mps 739 mmHg 80%
    17:00 +7°C° 0 mm 3 mps 739 mmHg 80%
    18:00 +7°C° 0 mm 3 mps 739 mmHg 81%
    19:00 +7°C° 0 mm 3 mps 739 mmHg 82%
    20:00 +7°C° 0 mm 3 mps 739 mmHg 84%
    21:00 +7°C° 0 mm 3 mps 739 mmHg 86%
    22:00 +7°C° 0 mm 3 mps 739 mmHg 89%
    23:00 +7°C° 0.1 mm 3 mps 738 mmHg 91%

    Tomorrow, 13 November, Wednesday

    Time Temperature Precipitation Wind Pressure Humidity
    00:00 +7°C° 0.1 mm 3 mps 738 mmHg 93%
    01:00 +8°C° 0.1 mm 3 mps 738 mmHg 95%
    02:00 +7°C° 0.3 mm 3 mps 737 mmHg 96%
    03:00 +7°C° 0.3 mm 2 mps 737 mmHg 96%
    04:00 +7°C° 0.3 mm 2 mps 736 mmHg 96%
    05:00 +7°C° 0.1 mm 2 mps 736 mmHg 95%
    06:00 +7°C° 0.1 mm 2 mps 736 mmHg 95%
    07:00 +7°C° 0.1 mm 2 mps 736 mmHg 94%
    08:00 +7°C° 0.2 mm 2 mps 736 mmHg 92%
    09:00 +8°C° 0.2 mm 2 mps 735 mmHg 91%
    10:00 +8°C° 0.2 mm 2 mps 735 mmHg 89%
    11:00 +8°C° 1.2 mm 2 mps 735 mmHg 91%
    12:00 +8°C° 1.2 mm 2 mps 735 mmHg 93%
    13:00 +9°C° 1.2 mm 2 mps 734 mmHg 95%
    14:00 +9°C° 0.6 mm 2 mps 734 mmHg 95%
    15:00 +9°C° 0.6 mm 2 mps 734 mmHg 96%
    16:00 +10°C° 0.6 mm 1 mps 734 mmHg 96%
    17:00 +9°C° 0 mm 1 mps 735 mmHg 96%
    18:00 +9°C° 0 mm 1 mps 735 mmHg 96%
    19:00 +7°C° 0 mm 0 mps 735 mmHg 96%
    20:00 +8°C° 0 mm 1 mps 735 mmHg 96%
    21:00 +8°C° 0 mm 2 mps 735 mmHg 95%
    22:00 +8°C° 0 mm 3 mps 735 mmHg 95%
    23:00 +8°C° 0.1 mm 3 mps 735 mmHg 93%

    Day after tomorrow, 14 November, Thursday

    Time Temperature Precipitation Wind Pressure Humidity
    00:00 +9°C° 0.1 mm 3 mps 734 mmHg 91%
    01:00 +8°C° 0.1 mm 4 mps 734 mmHg 89%
    02:00 +8°C° 0 mm 4 mps 734 mmHg 90%
    03:00 +8°C° 0 mm 4 mps 735 mmHg 91%
    04:00 +8°C° 0 mm 5 mps 735 mmHg 92%
    05:00 +7°C° 0 mm 5 mps 736 mmHg 93%
    06:00 +7°C° 0 mm 5 mps 737 mmHg 94%
    07:00 +6°C° 0 mm 4 mps 737 mmHg 95%
    08:00 +8°C° 0 mm 3 mps 738 mmHg 91%
    09:00 +8°C° 0 mm 2 mps 739 mmHg 88%
    10:00 +9°C° 0 mm 1 mps 740 mmHg 85%
    11:00 +9°C° 0.1 mm 1 mps 740 mmHg 85%
    12:00 +9°C° 0.1 mm 1 mps 740 mmHg 85%
    13:00 +8°C° 0.1 mm 0 mps 741 mmHg 85%
    14:00 +9°C° 0 mm 1 mps 741 mmHg 87%
    15:00 +9°C° 0 mm 1 mps 741 mmHg 88%
    16:00 +8°C° 0 mm 1 mps 741 mmHg 90%
    17:00 +8°C° 0 mm 1 mps 741 mmHg 90%
    18:00 +8°C° 0 mm 1 mps 741 mmHg 91%
    19:00 +7°C° 0 mm 2 mps 741 mmHg 92%
    20:00 +8°C° 0.1 mm 2 mps 741 mmHg 93%
    21:00 +8°C° 0.1 mm 3 mps 741 mmHg 94%
    22:00 +8°C° 0.1 mm 3 mps 741 mmHg 95%
    23:00 +8°C° 0 mm 3 mps 741 mmHg 96%

    15 November, Friday

    Time Temperature Precipitation Wind Pressure Humidity
    00:00 +8°C° 0 mm 3 mps 741 mmHg 96%
    01:00 +8°C° 0 mm 3 mps 741 mmHg 97%
    02:00 +8°C° 0 mm 3 mps 741 mmHg 96%
    03:00 +8°C° 0 mm 3 mps 741 mmHg 95%
    04:00 +9°C° 0 mm 3 mps 741 mmHg 93%
    05:00 +8°C° 0 mm 4 mps 741 mmHg 93%
    06:00 +8°C° 0 mm 4 mps 741 mmHg 93%
    07:00 +8°C° 0 mm 4 mps 741 mmHg 93%
    08:00 +8°C° 0 mm 4 mps 741 mmHg 90%
    09:00 +10°C° 0 mm 4 mps 741 mmHg 88%
    10:00 +10°C° 0 mm 4 mps 741 mmHg 86%
    11:00 +11°C° 0 mm 4 mps 741 mmHg 84%
    12:00 +10°C° 0 mm 5 mps 741 mmHg 81%
    13:00 +12°C° 0 mm 5 mps 741 mmHg 79%
    14:00 +11°C° 0 mm 4 mps 741 mmHg 82%
    15:00 +11°C° 0 mm 4 mps 741 mmHg 84%
    16:00 +10°C° 0 mm 4 mps 741 mmHg 87%
    17:00 +9°C° 0 mm 5 mps 741 mmHg 88%
    18:00 +9°C° 0 mm 5 mps 741 mmHg 89%
    19:00 +9°C° 0 mm 5 mps 742 mmHg 90%
    20:00 +9°C° 0 mm 5 mps 742 mmHg 90%
    21:00 +9°C° 0 mm 5 mps 742 mmHg 91%
    22:00 +9°C° 0 mm 5 mps 742 mmHg 91%
    23:00 +9°C° 0 mm 5 mps 742 mmHg 92%

    16 November, Saturday

    Time Temperature Precipitation Wind Pressure Humidity
    00:00 +8°C° 0 mm 5 mps 742 mmHg 92%
    01:00 +8°C° 0 mm 4 mps 742 mmHg 92%
    02:00 +8°C° 0 mm 4 mps 742 mmHg 91%
    03:00 +8°C° 0 mm 4 mps 742 mmHg 91%
    04:00 +8°C° 0 mm 4 mps 742 mmHg 91%
    05:00 +8°C° 0 mm 4 mps 742 mmHg 91%
    06:00 +8°C° 0 mm 4 mps 742 mmHg 91%
    07:00 +8°C° 0 mm 4 mps 742 mmHg 90%
    08:00 +8°C° 0 mm 4 mps 743 mmHg 87%
    09:00 +10°C° 0 mm 4 mps 743 mmHg 83%
    10:00 +11°C° 0 mm 4 mps 743 mmHg 80%
    11:00 +11°C° 0 mm 4 mps 743 mmHg 77%
    12:00 +12°C° 0 mm 4 mps 744 mmHg 75%
    13:00 +13°C° 0 mm 4 mps 744 mmHg 73%
    14:00 +12°C° 0 mm 3 mps 744 mmHg 75%
    15:00 +12°C° 0 mm 3 mps 744 mmHg 77%
    16:00 +11°C° 0 mm 3 mps 744 mmHg 79%
    17:00 +11°C° 0 mm 3 mps 744 mmHg 80%
    18:00 +11°C° 0 mm 3 mps 744 mmHg 81%
    19:00 +10°C° 0 mm 3 mps 745 mmHg 82%
    20:00 +10°C° 0 mm 3 mps 745 mmHg 83%
    21:00 +10°C° 0 mm 3 mps 745 mmHg 84%
    22:00 +10°C° 0 mm 3 mps 745 mmHg 85%
    23:00 +10°C° 0 mm 3 mps 745 mmHg 86%

    17 November, Sunday

    Time Temperature Precipitation Wind Pressure Humidity
    00:00 +9°C° 0 mm 3 mps 745 mmHg 87%
    01:00 +9°C° 0 mm 3 mps 745 mmHg 87%
    02:00 +9°C° 0 mm 3 mps 745 mmHg 88%
    03:00 +8°C° 0 mm 4 mps 745 mmHg 89%
    04:00 +8°C° 0 mm 4 mps 745 mmHg 90%
    05:00 +7°C° 0 mm 4 mps 745 mmHg 91%
    06:00 +7°C° 0 mm 4 mps 745 mmHg 92%
    07:00 +7°C° 0 mm 4 mps 745 mmHg 93%
    08:00 +7°C° 0 mm 4 mps 745 mmHg 91%
    09:00 +8°C° 0 mm 5 mps 745 mmHg 90%
    10:00 +8°C° 0 mm 5 mps 745 mmHg 88%
    11:00 +8°C° 0 mm 5 mps 745 mmHg 86%
    12:00 +8°C° 0 mm 5 mps 744 mmHg 83%
    13:00 +9°C° 0 mm 5 mps 744 mmHg 80%
    14:00 +8°C° 0 mm 5 mps 744 mmHg 81%
    15:00 +8°C° 0 mm 5 mps 744 mmHg 81%
    16:00 +7°C° 0 mm 5 mps 743 mmHg 81%
    17:00 +7°C° 0 mm 5 mps 743 mmHg 82%
    18:00 +7°C° 0 mm 5 mps 743 mmHg 83%
    19:00 +6°C° 0 mm 5 mps 743 mmHg 83%
    20:00 +6°C° 0 mm 5 mps 743 mmHg 81%
    21:00 +5°C° 0 mm 5 mps 743 mmHg 79%
    22:00 +5°C° 0 mm 5 mps 743 mmHg 77%
    23:00 +5°C° 0 mm 5 mps 743 mmHg 78%
    Show more